Hourly Data Report for March 14, 2012

All times are specified in Local Standard Time (LST). Add 1 hour to adjust for Daylight Saving Time where and when it is observed.

MIRAMICHI RCS
NEW BRUNSWICK

47°00'34.000" N
65°27'54.000" W
33.00 m
8100989
71744
ACQ

Download Data

Hourly Data (March 2012)
Hourly Data Report for March 14, 2012
TIME Temp Definition
°C
Dew Point Temp Definition
°C
Rel Hum Definition
%
Wind Dir Definition
10's deg

Wind Spd Definition
km/h
Visibility Definition
km
Stn Press Definition
kPa
Hmdx Definition


Wind Chill Definition


Weather Definition


00:00 -4.3 -5.2 93 6 19   102.07   -10 LegendNANA
01:00 -4.4 -5.3 93 7 20   102.08   -11 LegendNANA
02:00 -4.3 -5.2 93 7 20   102.14   -11 LegendNANA
03:00 -4.2 -5.1 93 7 22   102.12   -11 LegendNANA
04:00 -4.1 -5.0 93 7 22   102.12   -11 LegendNANA
05:00 -3.9 -4.8 93 6 22   102.17   -10 LegendNANA
06:00 -3.8 -4.8 93 6 22   102.23   -10 LegendNANA
07:00 -3.7 -4.7 93 7 22   102.26   -10 LegendNANA
08:00 -3.6 -4.6 93 7 20   102.37   -10 LegendNANA
09:00 -3.5 -4.6 92 6 22   102.40   -10 LegendNANA
10:00 -3.3 -4.6 91 6 24   102.46   -10 LegendNANA
11:00 -3.0 -4.5 89 7 28   102.46   -10 LegendNANA
12:00 -2.8 -4.5 88 6 26   102.46   -10 LegendNANA
13:00 -2.5 -4.4 87 6 28   102.40   -10 LegendNANA
14:00 -2.4 -4.6 85 6 26   102.46   -9 LegendNANA
15:00 -2.4 -4.0 89 6 28   102.45   -9 LegendNANA
16:00 -2.2 -3.5 91 6 28   102.42   -9 LegendNANA
17:00 -2.6 -4.2 89 6 30   102.48   -10 LegendNANA
18:00 -2.4 -4.2 87 6 26   102.54   -9 LegendNANA
19:00 -2.2 -3.9 88 6 28   102.55   -9 LegendNANA
20:00 -2.7 -3.8 92 6 28   102.58   -10 LegendNANA
21:00 -2.7 -3.8 92 6 28   102.64   -10 LegendNANA
22:00 -3.0 -4.1 92 5 26   102.66   -10 LegendNANA
23:00 -3.1 -4.4 91 5 26   102.65   -10 LegendNANA

Notes on Data Quality.

Legend

  • E = Estimated
  • M = Missing
  • NA = Not Available
Date modified: